Sign In / Sign Up
 
 
Long Long Journey Regatta. Leg 82. 03/08 - 09/08



Race Date (UTC) # I place II place III place Track
Race696 2020-08-04 19:37:35 3 Argonaftis rafiki layline
Race695 2020-08-04 19:35:04 4 Jack Sparrow Scatteraction Lady S
Race694 2020-08-04 19:32:57 2 ЧАРА Мариуполь Stevo and friends
Race693 2020-08-04 19:31:11 2 Joe Joe yuppydu
Race692 2020-08-04 19:28:00 7 ge614 LaTota sheila
Race691 2020-08-04 19:25:50 8 RCLaser27 ЧАРА Мариуполь ionio
Race690 2020-08-04 19:24:07 8 Кот-Баюн A-Windwillow Sardynia
Race689 2020-08-04 19:22:25 2 LaTota Corse-Air
Race688 2020-08-04 19:21:17 3 Кот-Баюн MAGJA Stevo and friends
Race687 2020-08-04 19:19:52 4 RCLaser27 IMD ЧАРА Мариуполь
Race686 2020-08-04 19:17:32 8 Sardynia yuppydu Senator
Race685 2020-08-04 19:14:53 8 ge614 F*&k Antifa & Soros LaTota
Race684 2020-08-04 19:12:37 7 A-Windwillow Fabrizio 001
Race683 2020-08-04 19:09:03 8 ЧАРА Мариуполь piro lita Sardynia
Race682 2020-08-04 19:07:28 6 A-Windwillow Fabrizio yuppydu
Race681 2020-08-04 19:06:17 8 piro lita First Кот-Баюн
Race680 2020-08-04 19:04:47 4 ЧАРА Мариуполь SMOKIFY Joe Joe
Race679 2020-08-04 19:01:09 6 Sambaqui man 001 Y.C. Tempio Pausania
Race678 2020-08-04 18:59:18 8 A-Windwillow Ivan First
Race677 2020-08-04 18:57:20 8 Pescara3 SMOKIFY Sardynia
Race675 2020-08-04 18:55:41 7 001 Sambaqui man Trieste
Race674 2020-08-04 18:54:03 7 Eisbaren Beauport Ivan Scatteraction
Race673 2020-08-04 18:52:04 8 SMOKIFY NFUN Ведя Киев
Race672 2020-08-04 18:47:41 6 001 MAGJA Sambaqui man
Race671 2020-08-04 18:46:28 8 Pescara3 A-Windwillow Ведя Киев
Race670 2020-08-04 18:42:39 8 First BUCIEAU MicroMagic
Race669 2020-08-04 18:40:45 8 The Spirit NFUN SMOKIFY
Race668 2020-08-04 18:38:07 8 yuppydu First ulisse 1955
Race667 2020-08-04 18:35:12 8 Pescara3 GypsyBaron Arrogante
Race666 2020-08-04 18:34:42 8 Sambaqui man The Spirit First
Race665 2020-08-04 18:32:19 6 Y.C. Tempio Pausania yuppydu Moro di Venezia
Race664 2020-08-04 18:31:31 2 Alex wc
Race663 2020-08-04 18:29:34 8 GypsyBaron Giuseppe A-Windwillow
Race662 2020-08-04 18:28:05 8 Sardynia ЧАРА Мариуполь The Spirit
Race661 2020-08-04 18:25:37 4 PRADA45 yuppydu Y.C. Tempio Pausania
Race660 2020-08-04 18:24:08 8 GypsyBaron Ведя Киев yadolu
Race659 2020-08-04 18:22:28 8 The Spirit Sambaqui man Sardynia
Race658 2020-08-04 18:19:17 6 PRADA45 Joshua gal yam
Race657 2020-08-04 18:17:45 8 Pescara3 MicroMagic yadolu
Race656 2020-08-04 18:15:30 5 A-Windwillow Giuseppe ЧАРА Мариуполь
Race655 2020-08-04 18:12:51 3 Joshua Y.C. Tempio Pausania ICEBREAKER
Race654 2020-08-04 18:10:53 8 MicroMagic Pescara3 yadolu
Race653 2020-08-04 18:08:21 8 PRADA45 Sambaqui man A-Windwillow
Race652 2020-08-04 18:07:19 2 yuppydu gal yam
Race651 2020-08-04 18:05:43 8 Jack Sparrow LaTota Pescara3
Race650 2020-08-04 18:04:56 4 MaruimANTIFA ALLEGRA FIYC ЧАРА Мариуполь
Race649 2020-08-04 17:59:13 8 Pescara3 MicroMagic LaTota
Race648 2020-08-04 17:58:33 2 regina ЧАРА Мариуполь
Race647 2020-08-04 17:55:15 6 Sambaqui man theSENATOR A-Windwillow
Race646 2020-08-04 17:53:31 8 Pescara3 Sardynia Start100
Race645 2020-08-04 17:49:03 4 Sambaqui man LaTota theSENATOR
Race644 2020-08-04 17:45:41 8 ITA7336 Joshua Oldnick
Race643 2020-08-04 17:44:14 2 Sambaqui man MaruimANTIFA
Race642 2020-08-04 17:42:05 8 Oldnick Orzaiolo A-Windwillow
Race641 2020-08-04 17:38:42 8 yadolu Corse-Air Joshua
Race640 2020-08-04 17:36:45 6 Oldnick Udolino theSENATOR
Race639 2020-08-04 17:34:11 8 A-Windwillow F*&k Antifa & Soros Katanka
Race638 2020-08-04 17:32:28 7 ImU Nice ma quanto vi rode hahahaha ulisse 1955
Race637 2020-08-04 17:31:41 2 Udolino Sambaqui man
Race636 2020-08-04 17:29:58 8 theSENATOR ЧАРА Мариуполь Oldnick
Race635 2020-08-04 17:26:13 7 ImU F*&k Antifa & Soros Arrogante
Race634 2020-08-04 17:25:20 4 Tigerloo34 Apollo ITA7336
Race633 2020-08-04 17:21:23 6 Oldnick Invero Tabasco
Race632 2020-08-04 17:20:00 8 LaTota Follow Me Corse-Air
Race631 2020-08-04 17:18:42 8 Apollo Nice ma quanto vi rode hahahaha Joshua
Race630 2020-08-04 17:16:55 6 Karmar Katanka Tigerloo34
Race629 2020-08-04 17:15:45 3 Joyita V Follow Me Arrogante
Race628 2020-08-04 17:14:10 6 Corse-Air Neo F*&k Antifa & Soros
Race627 2020-08-04 17:12:22 8 strap Nice ma quanto vi rode hahahaha Apollo
Race626 2020-08-04 17:08:50 8 Tigerloo34 getnair Karmar
Race625 2020-08-04 17:07:10 8 strap Nice ma quanto vi rode hahahaha ЧАРА Мариуполь
Race624 2020-08-04 17:04:59 8 Karmar Tigerloo34 Fabrizio
Race623 2020-08-04 17:01:43 8 LaTota Taleggio Nice ma quanto vi rode hahahaha
Race622 2020-08-04 16:59:18 8 Tigerloo34 Fabrizio Karmar
Race621 2020-08-04 16:56:10 2 will77 uycas-CT9
Race620 2020-08-04 16:55:44 8 Karmar LaTota Neo
Race619 2020-08-04 16:51:54 2 wc Tigerloo34
Race618 2020-08-04 16:46:17 8 Karmar Nice ma quanto vi rode hahahaha ITA 77
Race617 2020-08-04 16:44:30 3 Karmar Pomerino 7pio
Race616 2020-08-04 16:40:43 3 mariemonti ProFan Hobie16
Race615 2020-08-04 16:39:25 8 penna boomerphelps ITA7336
Race614 2020-08-04 16:34:45 8 pippo Margot MaruimANTIFA
Race613 2020-08-04 16:29:54 6 Mao penna Karmar
Race612 2020-08-04 16:27:27 8 pippo Margot JJ
Race611 2020-08-04 16:24:06 8 Teo ita 2006 penna Karmar
Race610 2020-08-04 16:22:19 8 JJ A$$ HuoDo
Race609 2020-08-04 16:20:02 5 strap Teo ita 2006 Orzaiolo
Race608 2020-08-04 16:18:23 3 Orzaiolo strap Corse-Air
Race607 2020-08-04 16:16:36 3 A$$ mariemonti NewAY
Race606 2020-08-04 16:15:02 8 Karmar Fabrizio PISKAREV GALOPIN SB3324RUS
Race605 2020-08-04 16:12:50 4 Teo ita 2006 kabika Corse-Air
Race604 2020-08-04 16:11:13 2 mariemonti captain pugwash
Race603 2020-08-04 16:09:04 8 HuoDo PISKAREV GALOPIN SB3324RUS Ведя Киев
Race602 2020-08-04 16:07:07 2 will77 NewAY
Race601 2020-08-04 16:04:24 3 captain pugwash mariemonti Ipso
Race600 2020-08-04 16:03:14 8 HuoDo Nice ma quanto vi rode hahahaha Delfina
Race599 2020-08-04 15:58:50 5 Po captain pugwash A$$
Race598 2020-08-04 15:55:54 8 Nice ma quanto vi rode hahahaha Delfina mariemonti
Race597 2020-08-04 15:53:52 2 Ipso NewAY
Race596 2020-08-04 15:52:17 4 Willy mariemonti Sadalsuud